TimeCST,TemperatureF,Dew PointF,Humidity,Sea Level PressureIn,VisibilityMPH,Wind Direction,Wind SpeedMPH,Gust SpeedMPH,PrecipitationIn,Events,Conditions,WindDirDegrees,DateUTC
12:15 AM,59.0,39.2,48,29.64,10.0,South,19.6,27.6,N/A,,Clear,170,2013-03-04 06:15:00
12:35 AM,59.0,39.2,48,29.63,10.0,South,17.3,25.3,N/A,,Clear,170,2013-03-04 06:35:00
12:55 AM,59.0,39.2,48,29.62,10.0,South,17.3,25.3,N/A,,Clear,180,2013-03-04 06:55:00
1:15 AM,59.0,41.0,51,29.62,10.0,South,15.0,26.5,N/A,,Clear,170,2013-03-04 07:15:00
1:35 AM,59.0,41.0,51,29.61,10.0,South,13.8,21.9,N/A,,Clear,180,2013-03-04 07:35:00
2:15 AM,60.8,41.0,48,29.60,10.0,South,17.3,24.2,N/A,,Clear,180,2013-03-04 08:15:00
2:35 AM,60.8,41.0,48,29.59,10.0,South,18.4,25.3,N/A,,Clear,180,2013-03-04 08:35:00
2:55 AM,60.8,41.0,48,29.58,10.0,South,18.4,26.5,N/A,,Clear,180,2013-03-04 08:55:00
3:35 AM,59.0,39.2,48,29.57,10.0,South,16.1,23.0,N/A,,Clear,190,2013-03-04 09:35:00
3:55 AM,59.0,39.2,48,29.57,10.0,South,16.1,23.0,N/A,,Clear,190,2013-03-04 09:55:00
4:15 AM,59.0,39.2,48,29.55,10.0,South,16.1,20.7,N/A,,Clear,180,2013-03-04 10:15:00
4:35 AM,59.0,37.4,45,29.55,10.0,South,13.8,21.9,N/A,,Clear,190,2013-03-04 10:35:00
5:15 AM,59.0,37.4,45,29.55,10.0,South,12.7,26.5,N/A,,Clear,190,2013-03-04 11:15:00
5:35 AM,60.8,37.4,42,29.55,10.0,South,10.4,-,N/A,,Clear,180,2013-03-04 11:35:00
5:55 AM,59.0,37.4,45,29.55,10.0,South,10.4,17.3,N/A,,Clear,190,2013-03-04 11:55:00
6:15 AM,59.0,37.4,45,29.57,10.0,South,10.4,-,N/A,,Clear,190,2013-03-04 12:15:00
6:35 AM,59.0,39.2,48,29.56,10.0,South,13.8,18.4,N/A,,Clear,190,2013-03-04 12:35:00
6:55 AM,59.0,41.0,51,29.57,10.0,South,12.7,20.7,N/A,,Clear,190,2013-03-04 12:55:00
7:15 AM,57.2,41.0,55,29.57,10.0,SSW,12.7,-,N/A,,Clear,200,2013-03-04 13:15:00
7:35 AM,57.2,41.0,55,29.57,10.0,South,10.4,17.3,N/A,,Clear,190,2013-03-04 13:35:00
7:55 AM,57.2,41.0,55,29.58,10.0,South,10.4,16.1,N/A,,Clear,190,2013-03-04 13:55:00
8:15 AM,59.0,42.8,55,29.58,10.0,South,10.4,-,N/A,,Clear,190,2013-03-04 14:15:00
8:35 AM,59.0,41.0,51,29.58,10.0,South,9.2,-,N/A,,Clear,190,2013-03-04 14:35:00
8:55 AM,60.8,42.8,52,29.59,10.0,SSW,12.7,-,N/A,,Clear,200,2013-03-04 14:55:00
9:15 AM,62.6,41.0,45,29.59,10.0,SSW,11.5,-,N/A,,Clear,210,2013-03-04 15:15:00
9:35 AM,62.6,41.0,45,29.59,10.0,SW,10.4,-,N/A,,Clear,230,2013-03-04 15:35:00
9:55 AM,64.4,37.4,37,29.59,10.0,WSW,9.2,-,N/A,,Clear,240,2013-03-04 15:55:00
10:15 AM,64.4,37.4,37,29.60,10.0,WSW,8.1,-,N/A,,Clear,240,2013-03-04 16:15:00
10:35 AM,64.4,37.4,37,29.60,10.0,West,9.2,-,N/A,,Clear,260,2013-03-04 16:35:00
10:55 AM,64.4,37.4,37,29.60,10.0,West,9.2,-,N/A,,Clear,270,2013-03-04 16:55:00
11:15 AM,64.4,41.0,42,29.60,10.0,West,12.7,-,N/A,,Clear,280,2013-03-04 17:15:00
11:35 AM,66.2,41.0,40,29.61,10.0,WNW,6.9,-,N/A,,Clear,290,2013-03-04 17:35:00
11:55 AM,66.2,41.0,40,29.61,10.0,NNW,11.5,-,N/A,,Clear,330,2013-03-04 17:55:00
12:15 PM,64.4,42.8,45,29.62,10.0,WNW,6.9,-,N/A,,Clear,300,2013-03-04 18:15:00
12:35 PM,66.2,42.8,43,29.62,10.0,West,9.2,-,N/A,,Clear,280,2013-03-04 18:35:00
12:55 PM,66.2,42.8,43,29.62,10.0,NNW,4.6,-,N/A,,Clear,330,2013-03-04 18:55:00
1:15 PM,68.0,42.8,40,29.61,10.0,WNW,5.8,-,N/A,,Clear,300,2013-03-04 19:15:00
1:35 PM,68.0,42.8,40,29.61,10.0,West,8.1,-,N/A,,Clear,270,2013-03-04 19:35:00
1:55 PM,71.6,44.6,38,29.61,10.0,West,3.5,-,N/A,,Clear,260,2013-03-04 19:55:00
2:15 PM,71.6,44.6,38,29.61,10.0,WNW,10.4,16.1,N/A,,Clear,300,2013-03-04 20:15:00
2:35 PM,71.6,44.6,38,29.62,10.0,WNW,6.9,-,N/A,,Clear,290,2013-03-04 20:35:00
2:55 PM,71.6,44.6,38,29.62,10.0,NW,9.2,-,N/A,,Clear,310,2013-03-04 20:55:00
3:15 PM,71.6,44.6,38,29.62,10.0,WNW,6.9,-,N/A,,Clear,290,2013-03-04 21:15:00
3:35 PM,73.4,44.6,36,29.62,10.0,WNW,9.2,-,N/A,,Clear,300,2013-03-04 21:35:00
3:55 PM,71.6,44.6,38,29.63,10.0,NW,9.2,-,N/A,,Clear,310,2013-03-04 21:55:00
4:15 PM,71.6,44.6,38,29.64,10.0,NW,12.7,-,N/A,,Clear,310,2013-03-04 22:15:00
4:35 PM,71.6,44.6,38,29.65,10.0,WNW,11.5,-,N/A,,Clear,300,2013-03-04 22:35:00
4:55 PM,71.6,44.6,38,29.65,10.0,NW,13.8,-,N/A,,Clear,310,2013-03-04 22:55:00
5:35 PM,71.6,46.4,41,29.67,10.0,NNW,15.0,19.6,N/A,,Clear,340,2013-03-04 23:35:00
5:55 PM,64.4,46.4,52,29.68,10.0,North,15.0,-,N/A,,Clear,350,2013-03-04 23:55:00
6:15 PM,62.6,46.4,55,29.70,10.0,North,13.8,-,N/A,,Clear,350,2013-03-05 00:15:00
6:35 PM,60.8,46.4,59,29.73,10.0,NNW,10.4,-,N/A,,Clear,340,2013-03-05 00:35:00
6:55 PM,59.0,46.4,63,29.74,10.0,NNW,13.8,-,N/A,,Clear,340,2013-03-05 00:55:00
7:15 PM,57.2,46.4,67,29.76,10.0,NNW,20.7,-,N/A,,Clear,340,2013-03-05 01:15:00
7:35 PM,55.4,46.4,72,29.78,10.0,NNW,20.7,25.3,N/A,,Clear,340,2013-03-05 01:35:00
7:55 PM,53.6,44.6,72,29.78,10.0,NNW,21.9,31.1,N/A,,Clear,340,2013-03-05 01:55:00
8:15 PM,51.8,44.6,76,29.80,10.0,NNW,17.3,27.6,N/A,,Clear,340,2013-03-05 02:15:00
8:35 PM,51.8,44.6,76,29.81,10.0,NNW,24.2,28.8,N/A,,Clear,340,2013-03-05 02:35:00
8:55 PM,48.2,42.8,82,29.82,10.0,North,21.9,31.1,N/A,,Clear,350,2013-03-05 02:55:00
9:15 PM,48.2,42.8,82,29.85,10.0,NNW,27.6,31.1,N/A,,Clear,340,2013-03-05 03:15:00
9:35 PM,48.2,42.8,82,29.87,10.0,North,21.9,36.8,N/A,,Clear,350,2013-03-05 03:35:00
9:55 PM,46.4,41.0,81,29.90,10.0,North,25.3,36.8,N/A,,Clear,350,2013-03-05 03:55:00
10:15 PM,46.4,41.0,81,29.91,10.0,North,29.9,39.1,N/A,,Clear,350,2013-03-05 04:15:00
10:35 PM,46.4,41.0,81,29.96,10.0,NNW,25.3,32.2,N/A,,Clear,340,2013-03-05 04:35:00
10:55 PM,46.4,39.2,76,29.97,10.0,North,23.0,27.6,N/A,,Clear,350,2013-03-05 04:55:00
11:15 PM,46.4,39.2,76,29.98,10.0,North,25.3,32.2,N/A,,Scattered Clouds,360,2013-03-05 05:15:00
11:35 PM,48.2,37.4,66,30.00,10.0,North,19.6,36.8,N/A,,Mostly Cloudy,360,2013-03-05 05:35:00
11:55 PM,48.2,37.4,66,30.00,10.0,North,21.9,36.8,N/A,,Scattered Clouds,360,2013-03-05 05:55:00